Location: Plum Point
(34.9795°N, 89.9548°W)
Time: 16:11:32
(UTC+00:00)

Tiangong - Visible Passes

Search period start: 15 February 2026 00:00
Search period end: 25 February 2026 00:00
Orbit: 386 x 391 km, 41.5° (Epoch: 15 February)

Date Brightness Start Highest point End Pass type
(mag) Time Alt. Az. Time Alt. Az. Time Alt. Az.
15 Feb -0.9 00:02:59 10° W 00:05:55 33° NNW 00:08:50 10° NE visible
15 Feb 0.5 01:40:40 10° NW 01:41:45 17° NW 01:41:45 17° NW visible
16 Feb -0.5 00:42:07 10° WNW 00:44:47 24° N 00:46:13 18° NE visible
17 Feb -0.4 01:20:50 10° NW 01:22:57 25° NNW 01:22:57 25° NNW visible
18 Feb -0.6 00:22:20 10° NW 00:25:02 25° N 00:27:23 12° ENE visible
18 Feb 1.1 01:59:11 10° WNW 01:59:40 14° WNW 01:59:40 14° WNW visible
19 Feb -1.4 01:00:44 10° NW 01:03:45 38° NNE 01:04:07 36° NE visible
20 Feb -0.3 01:39:01 10° WNW 01:40:52 32° WNW 01:40:52 32° WNW visible
21 Feb -2.0 00:40:26 10° WNW 00:43:35 62° NNE 00:45:24 22° E visible
22 Feb -1.0 01:18:49 10° W 01:21:48 37° SSW 01:22:17 34° S visible
23 Feb -1.9 00:20:01 10° WNW 00:23:11 71° SSW 00:26:20 10° ESE visible
24 Feb 0.4 00:58:50 10° W 01:01:09 19° SW 01:03:26 10° S visible
